Temp
55 55 56 56 56 55 55 55 56 56 56 56 57 58 58 58 57 55 50 56 52 48 52 53 55 49 48 48 43 52 51 53 53 49 48 48 50 53 52 54 55 52 46 43 43 40 42 63 62 55 57 53 58 58
55 55 55 56 55 55 56 56 56 56 57 57 57 57 57 57 57 57 51 56 58 49 50 55 57 59 57 56 49 48 51 49 51 48 47 48 50 50 48 48 54 52 52 49 51 49 55 60 59 61 59 58 57 55
54 54 55 55 55 55 55 56 56 56 57 57 57 56 57 57 57 56 53 54 52 48 47 46 48 57 57 60 62 47 53 56 54 55 50 49 48 52 48 50 52 54 56 53 54 53 56 58 59 59 60 59 58 57
54 54 55 55 55 55 55 56 56 56 56 57 57 56 57 57 57 57 52 54 53 49 45 45 58 54 59 55 58 61 60 58 55 54 49 47 50 54 51 54 54 55 58 53 48 51 56 59 59 59 60 60 59 59
53 54 54 54 54 55 55 55 55 55 56 57 56 56 57 57 56 55 54 55 56 49 44 45 52 55 55 55 57 59 56 53 53 52 50 48 52 53 54 54 53 56 55 52 51 57 56 57 59 60 58 57 58 58
53 53 54 54 54 54 55 55 55 55 55 56 56 56 56 56 56 53 49 55 56 54 47 43 48 49 54 54 57 58 54 54 54 52 53 55 59 56 49 49 59 59 59 60 60 61 58 60 60 60 58 58 60 60
53 53 53 54 54 54 55 55 55 55 55 55 55 56 56 55 53 50 48 52 53 55 48 44 41 51 57 57 58 58 58 52 52 54 52 55 55 56 51 49 60 62 61 61 63 61 57 58 57 60 61 62 61 62
53 53 53 53 53 54 54 55 55 55 55 55 55 55 55 55 53 50 51 55 55 51 50 43 42 47 56 55 54 58 55 53 51 50 53 52 53 51 48 56 59 63 63 62 63 63 62 61 60 60 61 61 60 59
53 53 53 53 53 53 54 54 54 54 55 55 55 55 52 50 49 50 59 58 56 51 45 46 42 39 55 50 54 56 57 50 55 48 48 53 48 44 54 57 59 61 60 60 63 64 63 62 60 60 61 60 58 58
53 53 53 53 53 54 53 53 53 54 54 54 52 48 46 51 58 58 54 49 49 49 48 44 44 40 47 49 48 51 51 50 47 50 53 46 47 57 59 60 61 62 64 63 60 58 60 57 60 61 61 62 62 61
53 53 54 54 53 54 53 53 53 54 53 49 46 46 52 57 52 50 46 45 46 44 46 44 43 41 48 45 45 50 47 47 44 47 47 45 43 56 63 62 61 62 63 66 65 65 67 66 64 62 62 63 62 61
53 53 53 54 54 53 53 53 54 52 50 50 49 51 49 49 46 44 44 45 43 43 48 46 48 45 45 48 45 46 47 47 40 49 44 41 49 59 63 64 66 63 65 66 67 65 67 68 67 66 65 64 64 63
53 53 53 54 53 53 53 54 53 54 53 51 48 47 46 46 39 40 39 42 42 48 51 51 49 50 47 47 47 44 43 42 50 45 45 48 53 55 55 57 60 62 64 65 66 67 66 65 66 66 65 67 66 64
53 53 53 53 53 53 54 54 54 53 49 45 43 36 41 41 43 44 45 46 50 51 48 50 49 49 50 47 46 42 45 48 44 41 45 48 50 53 53 56 58 61 63 64 64 65 66 65 63 66 67 67 66 63
52 52 52 52 53 53 53 53 53 51 47 43 44 36 39 45 47 50 51 49 51 50 47 46 48 49 48 47 45 45 43 41 43 44 47 50 51 52 54 54 56 59 61 62 63 64 65 64 64 61 65 68 67 65
52 51 50 53 53 53 52 52 51 50 46 44 44 42 44 42 44 48 49 49 52 51 49 49 47 43 44 42 42 43 45 45 49 48 51 53 53 53 53 54 56 59 59 60 62 63 64 62 63 62 61 65 66 65
51 48 53 53 53 52 52 50 49 45 44 43 41 44 44 44 44 45 47 50 52 49 47 46 42 42 44 42 42 48 46 47 50 52 53 53 53 55 55 56 57 58 61 61 61 62 62 63 61 59 57 59 65 65
48 51 53 53 52 51 50 49 46 45 42 44 40 42 44 46 46 48 50 53 49 48 45 48 45 41 40 42 43 47 49 52 52 53 53 53 55 56 57 55 57 59 58 59 59 59 59 58 56 59 59 62 64 64
50 51 52 53 52 49 46 47 46 41 43 44 44 45 46 48 53 55 55 54 52 52 49 47 44 41 42 45 47 49 49 49 50 50 52 53 54 55 55 56 55 57 58 56 56 56 59 59 58 57 58 60 64 64
52 52 52 52 52 47 45 45 49 43 40 43 45 44 46 48 50 51 51 50 49 50 48 45 45 45 50 51 52 53 53 53 50 51 52 53 54 54 54 53 52 52 53 54 55 52 57 59 60 57 59 61 63 61
51 51 52 51 49 48 46 46 45 46 46 43 46 46 46 46 47 47 46 48 46 45 45 48 49 51 57 56 54 55 54 53 51 51 52 52 53 52 52 52 53 53 52 52 53 53 53 54 54 55 57 59 58 59
50 53 49 50 47 47 46 44 42 47 46 45 44 46 44 44 44 46 47 46 46 49 50 51 55 57 53 56 58 55 55 56 55 53 49 51 53 53 53 53 52 53 53 54 54 54 54 54 54 55 56 55 55 57
51 51 48 48 44 42 40 45 42 45 42 44 46 44 44 45 46 49 45 47 49 53 53 53 54 56 55 58 57 55 56 55 52 51 52 53 53 53 52 53 53 52 52 53 53 52 52 49 52 55 55 55 56 56
51 46 44 44 43 39 45 42 47 45 45 44 44 47 48 48 50 46 44 47 50 51 52 54 54 53 53 54 53 55 54 52 52 51 51 51 51 52 53 54 54 54 54 53 53 53 53 54 51 55 55 55 55 55
40 40 40 35 44 42 41 44 45 44 44 46 47 46 47 49 46 47 45 48 50 51 52 53 53 53 53 53 52 53 55 54 55 52 52 53 53 55 54 54 53 53 54 54 54 54 54 55 55 55 55 54 55 55
35 42 38 43 44 42 44 43 46 46 46 47 47 49 49 47 45 44 48 50 51 52 53 55 54 52 51 51 50 51 53 56 56 53 52 54 57 53 52 52 52 55 54 53 55 56 56 56 56 56 55 54 48 54
36 41 43 45 44 45 44 46 48 46 45 45 46 47 46 41 43 49 52 53 53 55 56 56 53 51 51 51 52 53 53 54 56 56 55 55 56 54 54 53 53 54 55 56 56 58 57 55 56 55 55 54 54 54
44 44 41 46 44 47 44 46 46 45 47 48 48 46 44 46 47 53 55 56 55 55 54 55 57 56 56 55 53 54 57 55 56 56 56 56 56 56 56 56 54 45 52 53 56 57 59 59 58 57 56 53 52 53
41 46 47 44 45 46 47 46 46 48 51 49 48 48 50 51 55 57 59 57 55 57 55 56 54 59 58 55 59 62 62 59 57 54 52 50 52 54 54 56 56 55 54 53 44 51 59 58 58 56 54 53 53 53
44 47 45 46 46 46 47 49 49 51 52 50 51 54 55 57 59 57 56 58 61 54 53 54 58 60 55 56 57 58 57 59 62 57 53 51 52 54 54 55 55 55 57 57 54 54 48 53 51 55 53 52 51 51
48 48 46 47 46 49 50 52 52 52 52 53 56 53 52 55 57 62 59 57 60 56 60 56 54 56 59 53 53 53 53 54 54 55 54 54 54 55 56 59 58 58 57 56 55 55 54 53 53 53 53 51 51 50
47 46 47 46 48 52 53 51 50 50 52 53 50 52 53 54 50 57 62 58 60 54 52 55 55 54 53 53 53 52 48 50 50 51 53 52 52 53 53 58 60 60 60 57 56 55 55 53 52 51 51 52 52 52
49 48 48 51 50 50 51 51 50 51 50 51 52 54 54 55 54 56 59 57 57 56 56 56 56 55 55 57 54 51 47 46 43 42 42 42 43 47 53 53 55 55 54 53 53 53 52 52 51 51 51 50 50 50
MSLP
1020.79 1020.50 1020.11 1019.92 1019.79 1019.72 1019.60 1019.40 1019.26 1019.06 1018.82 1018.48 1018.20 1017.92 1017.74 1017.63 1017.54 1017.66 1017.35 1016.80 1016.71 1016.05 1014.45 1013.79 1013.48 1013.40 1012.96 1012.79 1012.44 1010.91 1009.71 1008.56 1007.89 1007.86 1008.00 1006.67 1005.53 1005.14 1004.95 1005.07 1005.53 1006.93 1008.35 1009.50 1009.88 1009.51 1008.59 1007.28 1007.88 1008.03 1007.69 1007.93 1008.25 1008.68
1020.44 1020.16 1019.81 1019.58 1019.42 1019.32 1019.17 1018.95 1018.80 1018.59 1018.40 1018.22 1018.01 1017.78 1017.51 1017.47 1017.42 1017.37 1017.24 1016.51 1016.35 1016.31 1014.26 1013.10 1012.65 1012.26 1012.11 1012.15 1012.28 1011.76 1011.00 1010.26 1009.40 1009.09 1008.94 1008.12 1006.42 1006.07 1005.64 1005.76 1005.56 1006.22 1006.45 1007.42 1008.23 1008.05 1007.14 1006.77 1006.78 1006.75 1007.16 1007.75 1008.26 1008.75
1020.14 1019.81 1019.43 1019.27 1019.10 1018.96 1018.79 1018.65 1018.49 1018.29 1018.05 1017.84 1017.77 1017.59 1017.33 1017.18 1017.17 1017.26 1016.99 1016.58 1016.38 1015.74 1013.86 1012.63 1011.06 1010.43 1010.44 1010.41 1010.94 1011.91 1010.48 1009.85 1009.60 1009.27 1009.27 1008.48 1007.49 1006.74 1006.52 1005.93 1005.68 1005.78 1005.87 1006.51 1007.46 1007.71 1007.39 1007.15 1007.05 1007.16 1007.38 1007.59 1008.18 1008.79
1019.80 1019.50 1019.10 1018.93 1018.80 1018.67 1018.49 1018.30 1018.16 1017.99 1017.77 1017.51 1017.39 1017.29 1017.10 1016.83 1016.81 1016.82 1016.79 1016.36 1016.25 1015.82 1014.54 1011.61 1010.20 1009.87 1009.50 1009.72 1010.14 1010.24 1010.21 1010.12 1010.19 1009.49 1009.31 1009.56 1007.80 1007.19 1007.21 1006.40 1005.74 1005.50 1005.71 1006.70 1007.85 1008.08 1007.91 1007.59 1007.36 1007.50 1007.77 1008.11 1008.67 1009.16
1019.41 1019.16 1018.82 1018.60 1018.48 1018.34 1018.19 1018.02 1017.87 1017.64 1017.46 1017.18 1017.07 1016.99 1016.76 1016.50 1016.49 1016.33 1016.09 1015.69 1015.72 1016.10 1014.77 1012.39 1010.67 1008.61 1008.55 1008.33 1008.80 1009.58 1010.29 1010.57 1010.74 1010.05 1009.53 1009.39 1008.33 1007.59 1007.10 1006.76 1005.79 1005.38 1005.45 1006.09 1006.68 1006.57 1006.90 1006.84 1007.00 1007.77 1008.26 1008.75 1009.19 1009.46
1019.14 1018.92 1018.68 1018.39 1018.13 1018.06 1017.89 1017.72 1017.59 1017.32 1017.10 1016.85 1016.74 1016.65 1016.47 1016.32 1016.26 1016.16 1015.63 1015.11 1015.13 1015.36 1014.96 1013.38 1010.99 1009.15 1008.37 1008.06 1008.48 1008.85 1009.98 1010.63 1010.40 1010.34 1009.73 1008.85 1007.94 1007.62 1008.32 1007.88 1005.19 1004.93 1004.79 1004.80 1005.33 1005.98 1006.54 1006.40 1007.22 1007.92 1008.57 1008.98 1009.20 1009.42
1018.74 1018.47 1018.35 1018.10 1017.80 1017.64 1017.55 1017.40 1017.25 1017.04 1016.77 1016.50 1016.37 1016.27 1016.18 1016.19 1016.27 1015.96 1015.49 1015.21 1015.07 1015.08 1014.83 1013.69 1011.98 1009.35 1007.87 1007.93 1008.45 1009.06 1009.81 1010.27 1010.63 1010.47 1009.85 1009.19 1008.63 1008.75 1007.78 1007.31 1005.05 1004.97 1004.70 1004.85 1004.97 1005.84 1006.88 1007.10 1007.35 1007.85 1008.22 1008.65 1008.92 1009.32
1018.27 1018.13 1017.97 1017.68 1017.46 1017.36 1017.20 1017.08 1016.99 1016.78 1016.46 1016.20 1016.10 1016.01 1015.98 1015.94 1015.86 1015.56 1014.38 1014.10 1014.80 1015.14 1014.92 1014.07 1011.94 1009.99 1007.89 1007.77 1007.99 1008.04 1008.80 1009.67 1010.28 1010.45 1009.99 1009.57 1009.08 1008.56 1007.39 1006.01 1005.58 1004.92 1004.62 1004.77 1005.12 1005.09 1005.07 1006.31 1007.17 1007.81 1008.23 1008.67 1008.92 1009.48
1017.65 1017.63 1017.53 1017.31 1017.18 1017.04 1016.92 1016.84 1016.80 1016.54 1016.23 1016.01 1015.88 1015.86 1015.84 1015.76 1015.33 1014.47 1013.78 1013.73 1014.25 1014.96 1014.44 1013.69 1012.51 1010.79 1008.43 1008.27 1007.95 1007.92 1008.09 1009.16 1009.34 1009.66 1009.52 1009.25 1008.86 1008.11 1006.12 1005.59 1005.11 1004.85 1004.88 1004.84 1005.27 1005.12 1005.65 1006.13 1007.05 1007.65 1008.14 1008.50 1008.91 1009.52
1017.13 1017.06 1016.96 1016.88 1016.79 1016.71 1016.70 1016.67 1016.50 1016.29 1016.07 1015.87 1015.88 1015.92 1015.39 1014.61 1014.07 1014.09 1013.92 1014.09 1014.29 1014.27 1014.13 1013.29 1012.51 1011.56 1010.06 1008.94 1008.77 1008.59 1008.81 1008.72 1008.94 1008.59 1008.88 1009.26 1008.37 1006.84 1005.66 1005.17 1004.61 1004.43 1004.72 1004.89 1005.23 1005.48 1006.09 1006.61 1006.96 1007.46 1007.66 1008.00 1008.27 1009.02
1016.64 1016.46 1016.34 1016.35 1016.40 1016.38 1016.37 1016.30 1016.19 1016.08 1015.95 1015.93 1015.88 1015.45 1014.60 1014.10 1014.06 1014.01 1013.75 1013.90 1013.73 1013.53 1012.92 1012.13 1011.84 1011.33 1010.02 1009.74 1009.41 1009.30 1009.38 1009.38 1008.93 1008.56 1008.45 1008.41 1006.82 1005.58 1004.64 1004.63 1004.16 1003.74 1003.97 1004.61 1004.32 1004.12 1004.46 1005.03 1005.95 1006.77 1007.39 1007.90 1008.40 1008.88
1016.07 1015.88 1015.80 1015.88 1015.97 1016.02 1015.94 1015.70 1015.73 1015.92 1015.80 1015.83 1015.82 1015.38 1014.95 1014.48 1014.16 1013.94 1013.13 1012.84 1012.71 1011.94 1011.27 1011.00 1010.48 1010.70 1010.12 1009.61 1009.70 1009.74 1009.47 1009.49 1008.72 1008.42 1008.31 1006.81 1005.21 1004.07 1003.54 1003.35 1003.24 1003.47 1003.71 1003.76 1003.46 1003.77 1004.13 1004.73 1005.10 1005.80 1006.41 1007.18 1007.68 1008.35
1015.49 1015.17 1015.32 1015.51 1015.66 1015.70 1015.54 1015.48 1015.60 1015.68 1015.59 1015.59 1015.68 1015.26 1014.87 1014.18 1013.62 1013.19 1012.34 1011.72 1011.46 1010.90 1010.41 1010.15 1009.98 1009.80 1009.87 1009.61 1009.67 1009.62 1009.39 1008.98 1008.35 1008.06 1007.09 1005.63 1004.45 1004.08 1003.70 1003.33 1002.97 1003.03 1003.24 1003.31 1003.43 1003.62 1003.91 1004.59 1005.12 1005.66 1006.08 1006.47 1007.14 1007.83
1015.36 1015.19 1015.24 1015.36 1015.44 1015.49 1015.42 1015.51 1015.62 1015.75 1015.84 1015.77 1015.41 1014.98 1014.54 1013.52 1012.62 1011.91 1011.62 1011.36 1010.86 1010.51 1010.35 1010.13 1009.77 1009.84 1009.42 1009.34 1009.44 1009.44 1008.82 1008.43 1008.14 1007.63 1006.43 1004.89 1004.55 1004.19 1003.96 1003.64 1003.38 1002.81 1002.86 1003.02 1003.17 1003.63 1004.12 1004.39 1004.82 1005.06 1005.62 1006.01 1006.61 1007.40
1015.49 1015.38 1015.29 1015.21 1015.26 1015.39 1015.48 1015.55 1015.65 1015.84 1015.85 1015.68 1015.23 1014.60 1013.65 1012.66 1012.03 1011.51 1011.08 1010.85 1010.39 1010.32 1010.30 1009.99 1009.74 1009.61 1009.31 1009.27 1009.06 1008.89 1008.57 1008.10 1007.49 1006.47 1005.53 1004.74 1004.20 1004.17 1003.99 1003.67 1002.85 1002.42 1002.43 1002.56 1002.78 1003.12 1003.65 1003.96 1004.48 1004.90 1005.04 1005.54 1006.04 1006.59
1015.44 1015.34 1015.19 1015.06 1015.14 1015.33 1015.47 1015.60 1015.80 1015.86 1015.73 1015.51 1014.88 1014.11 1013.04 1012.70 1011.88 1011.30 1010.86 1010.39 1009.95 1009.91 1009.83 1009.75 1009.53 1009.68 1009.16 1009.00 1008.91 1008.35 1007.85 1007.02 1006.53 1006.04 1005.48 1004.90 1004.42 1004.39 1004.11 1003.83 1003.18 1002.30 1002.00 1002.32 1002.63 1002.76 1003.15 1003.69 1003.92 1004.15 1004.48 1004.95 1005.57 1006.01
1015.40 1015.23 1014.91 1014.89 1015.06 1015.30 1015.47 1015.64 1015.75 1015.76 1015.52 1014.90 1014.04 1013.38 1013.14 1012.69 1011.89 1011.15 1010.44 1009.85 1009.67 1009.83 1009.56 1009.42 1009.54 1009.12 1008.94 1008.74 1008.28 1007.54 1007.27 1007.08 1006.46 1005.92 1005.62 1005.20 1004.88 1004.49 1004.27 1004.30 1004.11 1003.24 1002.83 1002.90 1002.93 1003.00 1003.17 1003.33 1003.67 1004.09 1004.57 1004.46 1004.85 1005.14
1015.41 1015.04 1014.89 1015.02 1015.20 1015.35 1015.49 1015.44 1015.45 1015.22 1014.70 1013.90 1013.55 1012.63 1012.37 1011.77 1011.10 1010.43 1009.78 1009.36 1009.61 1009.47 1009.35 1009.08 1009.00 1009.04 1008.85 1008.34 1007.81 1007.46 1007.01 1006.52 1006.30 1005.78 1005.50 1005.22 1004.71 1004.67 1004.48 1004.39 1004.03 1003.52 1003.40 1003.40 1003.40 1003.43 1003.54 1003.75 1003.93 1003.85 1003.60 1003.68 1004.18 1004.64
1015.22 1015.22 1015.11 1015.12 1015.16 1015.22 1015.28 1015.36 1015.31 1014.72 1013.58 1012.98 1012.36 1011.91 1011.65 1010.87 1009.88 1009.38 1009.03 1008.79 1008.80 1008.90 1008.98 1008.93 1009.02 1008.85 1008.33 1007.62 1007.31 1006.95 1006.74 1006.72 1006.53 1006.11 1005.60 1005.22 1004.77 1004.45 1004.19 1004.11 1004.03 1003.76 1003.57 1003.99 1003.89 1003.85 1003.65 1003.67 1003.86 1003.50 1003.49 1003.66 1003.87 1004.01
1015.08 1015.06 1015.02 1015.09 1015.27 1015.22 1015.11 1014.84 1014.69 1014.29 1013.24 1012.00 1011.44 1010.97 1010.56 1009.69 1008.83 1008.53 1008.42 1008.60 1008.79 1008.93 1008.99 1008.82 1008.27 1007.60 1007.09 1006.85 1006.74 1006.58 1006.34 1006.32 1006.27 1006.10 1005.64 1005.05 1004.70 1004.42 1004.47 1004.50 1004.47 1004.32 1004.34 1004.11 1003.85 1003.69 1003.42 1003.49 1003.45 1003.31 1003.16 1003.28 1003.58 1003.81
1014.96 1014.75 1014.92 1015.15 1015.23 1015.14 1014.84 1014.25 1013.87 1013.16 1012.16 1011.50 1010.27 1010.06 1009.50 1008.97 1008.63 1008.40 1008.33 1008.33 1008.70 1008.56 1008.31 1007.60 1007.06 1006.50 1006.20 1006.12 1006.01 1005.95 1005.85 1006.05 1005.91 1005.76 1005.53 1005.37 1004.80 1004.69 1004.49 1004.22 1004.09 1004.03 1004.05 1004.13 1004.16 1003.93 1003.52 1003.53 1003.40 1003.25 1003.15 1003.40 1003.27 1003.47
1014.52 1014.47 1014.82 1015.16 1014.93 1014.84 1014.42 1013.76 1013.34 1012.30 1011.85 1010.56 1010.00 1009.34 1009.03 1008.65 1008.31 1008.01 1007.86 1008.07 1007.86 1007.17 1006.78 1006.45 1006.09 1005.83 1005.70 1005.50 1005.32 1005.24 1005.16 1005.13 1005.22 1005.31 1005.24 1005.15 1005.07 1004.92 1004.68 1004.37 1004.33 1004.20 1004.03 1003.85 1003.75 1003.77 1003.35 1003.23 1003.35 1003.29 1003.29 1003.26 1003.11 1003.32
1014.46 1014.42 1014.47 1014.65 1014.66 1014.39 1013.65 1013.01 1012.76 1011.55 1010.95 1009.87 1009.20 1008.91 1008.56 1008.21 1007.76 1007.59 1007.62 1007.31 1006.76 1006.02 1005.78 1005.63 1005.32 1005.14 1005.26 1004.82 1004.89 1004.95 1004.94 1004.98 1005.13 1005.08 1005.01 1004.96 1004.76 1004.63 1004.60 1004.40 1004.36 1004.54 1004.43 1004.02 1003.69 1003.44 1003.37 1003.18 1003.38 1003.46 1003.53 1003.60 1003.68 1003.79
1014.54 1014.42 1014.28 1014.14 1014.18 1013.59 1012.85 1012.16 1011.27 1010.59 1009.81 1009.39 1008.84 1008.21 1007.99 1007.77 1007.42 1007.36 1007.24 1006.77 1006.27 1005.85 1005.58 1005.35 1005.14 1005.02 1004.94 1004.99 1004.95 1004.86 1004.82 1004.90 1004.85 1004.80 1004.88 1004.89 1004.92 1004.72 1004.62 1004.43 1004.40 1004.46 1004.50 1004.38 1004.09 1003.88 1003.67 1003.48 1003.54 1003.69 1003.83 1004.06 1004.16 1004.21
1014.80 1014.52 1014.47 1013.79 1013.32 1013.09 1012.13 1010.91 1010.07 1009.67 1009.03 1008.36 1008.00 1007.89 1007.58 1007.57 1007.32 1006.86 1006.78 1006.42 1006.07 1005.78 1005.43 1005.11 1004.85 1004.94 1005.15 1005.24 1005.11 1004.87 1004.48 1004.59 1004.60 1004.85 1004.91 1004.98 1004.95 1004.76 1004.76 1004.53 1004.22 1004.14 1004.07 1004.11 1003.99 1003.77 1003.72 1003.70 1003.50 1003.81 1004.10 1004.45 1004.60 1004.49
1014.24 1013.75 1013.68 1012.79 1012.12 1011.85 1010.83 1010.02 1009.18 1008.81 1008.53 1007.94 1007.53 1007.17 1007.05 1006.92 1006.74 1006.42 1006.36 1005.98 1005.76 1005.65 1005.38 1005.16 1005.03 1005.25 1005.60 1005.41 1005.34 1005.20 1004.95 1004.81 1004.75 1004.91 1004.99 1004.90 1004.94 1005.06 1005.02 1004.73 1004.51 1004.16 1004.06 1003.98 1003.89 1003.85 1003.97 1003.84 1003.83 1003.99 1004.17 1004.29 1004.45 1004.41
1013.58 1012.84 1012.39 1011.81 1011.52 1011.05 1010.42 1009.51 1008.98 1008.65 1008.18 1007.60 1007.32 1006.70 1006.77 1006.71 1006.36 1006.05 1005.78 1005.54 1005.46 1005.33 1005.26 1005.17 1005.08 1005.28 1005.49 1005.44 1005.28 1005.07 1004.89 1004.83 1004.88 1005.07 1005.02 1004.99 1004.96 1004.96 1004.80 1004.81 1004.88 1004.64 1004.11 1003.89 1003.69 1003.67 1003.73 1003.72 1003.86 1004.16 1004.38 1004.43 1004.57 1004.59
1012.69 1011.98 1011.54 1010.96 1010.83 1010.34 1009.98 1009.26 1008.66 1008.17 1007.66 1007.41 1007.06 1006.31 1006.39 1005.99 1005.83 1005.23 1004.92 1004.81 1004.96 1004.98 1005.43 1005.39 1005.35 1005.40 1005.34 1005.26 1005.19 1005.05 1004.77 1004.72 1004.85 1004.83 1004.67 1004.80 1004.82 1004.75 1004.59 1004.65 1004.71 1004.73 1004.53 1004.29 1004.17 1004.07 1004.16 1004.29 1004.37 1004.40 1004.56 1004.78 1004.87 1004.79
1011.95 1011.13 1010.73 1010.32 1010.00 1009.57 1008.97 1008.50 1008.13 1007.86 1007.40 1006.99 1006.73 1006.18 1005.84 1005.46 1005.09 1004.78 1004.49 1004.57 1004.71 1005.09 1005.62 1005.77 1005.80 1005.45 1005.31 1005.15 1005.00 1004.94 1004.84 1004.82 1005.11 1005.63 1005.86 1005.89 1005.71 1005.52 1005.07 1004.73 1004.66 1004.84 1004.90 1004.87 1004.87 1004.57 1004.58 1004.59 1004.52 1004.59 1004.81 1005.02 1005.16 1005.24
1010.76 1010.27 1010.15 1009.69 1009.12 1008.54 1008.23 1007.90 1007.65 1007.56 1007.35 1007.14 1006.69 1006.04 1005.57 1005.31 1004.93 1004.62 1004.78 1004.70 1004.83 1005.56 1005.91 1005.97 1005.91 1005.86 1006.13 1005.99 1006.12 1006.02 1005.96 1005.91 1005.97 1006.26 1006.40 1006.42 1006.45 1006.08 1005.52 1005.03 1004.89 1005.01 1005.02 1005.22 1005.51 1005.54 1005.27 1005.21 1005.27 1005.21 1005.29 1005.40 1005.49 1005.55
1010.12 1009.79 1009.57 1009.04 1008.35 1007.90 1007.88 1007.25 1007.46 1007.48 1007.05 1006.62 1006.32 1006.02 1006.00 1005.69 1004.99 1004.85 1004.92 1005.13 1005.31 1005.63 1005.93 1006.26 1006.37 1006.48 1006.45 1006.57 1006.78 1006.98 1007.30 1007.19 1006.96 1006.87 1006.81 1006.70 1006.50 1006.23 1006.00 1005.60 1005.46 1005.38 1005.42 1005.53 1005.63 1005.63 1005.63 1005.59 1005.66 1005.63 1005.58 1005.80 1005.75 1005.80
1009.31 1008.98 1008.51 1007.99 1007.72 1007.41 1007.38 1007.60 1007.35 1007.24 1006.90 1006.58 1006.47 1006.27 1006.49 1006.73 1006.99 1005.82 1005.33 1005.26 1005.56 1006.08 1006.29 1006.44 1006.51 1006.80 1006.79 1006.88 1007.11 1007.43 1007.57 1007.76 1007.64 1007.46 1007.28 1007.23 1007.18 1007.05 1006.81 1006.52 1006.36 1006.22 1006.14 1006.31 1006.47 1006.46 1006.38 1006.56 1006.58 1006.38 1006.29 1006.35 1006.16 1006.22
1008.27 1008.22 1008.03 1007.55 1007.28 1007.25 1007.08 1006.97 1006.95 1006.81 1006.63 1006.52 1006.36 1006.23 1006.24 1006.32 1006.36 1005.99 1005.53 1005.58 1005.79 1006.01 1006.31 1006.34 1006.45 1006.73 1007.03 1007.11 1007.59 1008.09 1008.26 1008.48 1008.48 1008.16 1008.00 1007.96 1007.86 1007.85 1007.80 1007.65 1007.47 1007.34 1007.27 1007.30 1007.43 1007.49 1007.55 1007.50 1007.53 1007.50 1007.43 1007.40 1007.34 1007.32
Wind_Speed
14 15 12 10 9 7 8 9 10 10 11 12 12 13 8 7 5 3 4 4 2 3 9 10 12 7 2 2 3 5 7 4 4 6 2 3 3 1 4 5 9 7 8 4 4 4 4 7 5 6 9 1 5 5
14 15 12 10 9 10 10 9 11 11 11 11 12 12 10 7 6 3 3 2 1 4 7 5 10 13 14 11 3 3 4 2 3 3 3 4 3 3 1 3 2 3 7 9 8 8 5 6 6 5 6 6 6 5
14 15 12 11 10 10 9 9 10 11 11 10 11 12 13 8 6 3 3 3 2 3 7 3 9 11 6 18 15 5 4 3 3 3 2 2 2 3 1 2 4 3 2 5 5 4 2 2 3 2 6 5 4 3
14 15 11 10 10 9 9 10 10 12 12 11 10 12 13 9 7 4 3 1 2 3 5 8 3 7 3 6 13 20 4 7 4 2 2 3 1 3 3 3 3 4 4 6 3 3 2 5 5 2 2 5 8 6
13 14 11 9 9 9 9 9 10 12 13 12 9 11 13 8 7 5 5 4 5 3 4 8 15 10 6 9 14 15 9 8 3 4 1 3 2 1 2 2 2 3 7 5 6 10 5 6 4 4 5 3 6 6
13 12 12 11 11 10 9 10 11 13 13 12 8 10 11 6 5 2 3 1 5 4 3 6 5 7 5 5 12 17 6 2 2 1 3 3 3 4 2 5 5 2 2 5 6 8 2 2 6 5 3 5 6 7
13 12 11 12 12 11 9 10 12 13 13 7 8 10 8 6 1 3 2 0 3 1 2 5 6 6 5 5 4 4 10 3 2 3 2 2 3 3 3 4 4 5 7 6 11 11 5 1 5 7 5 6 6 5
13 13 13 13 12 11 9 9 12 12 11 8 9 7 7 7 7 5 4 10 5 2 1 4 6 5 3 1 3 4 5 3 3 4 3 2 5 3 3 7 4 5 5 9 11 2 8 9 7 6 5 5 7 6
13 13 13 12 11 10 8 8 12 13 9 9 5 5 3 2 3 3 2 5 2 1 2 3 3 5 5 2 2 2 3 3 3 3 4 3 2 5 7 6 4 4 3 3 5 7 9 12 10 9 7 7 7 7
12 13 12 10 11 8 10 11 12 12 8 4 1 1 2 3 5 5 1 2 2 2 3 4 1 5 3 3 2 2 2 0 3 6 5 3 5 15 12 8 6 5 7 4 7 7 5 4 11 12 13 11 11 11
11 12 12 10 8 9 10 12 12 8 1 0 2 3 2 4 0 2 2 3 3 3 4 4 6 3 3 0 1 1 3 3 2 1 5 5 4 14 17 15 8 7 5 6 7 7 14 17 16 13 9 8 7 8
14 13 9 9 8 8 11 12 6 2 2 1 2 3 2 2 1 3 3 3 4 4 3 3 4 5 4 2 3 1 2 3 5 1 2 4 5 9 13 16 14 8 8 7 3 4 13 13 15 15 13 11 11 10
13 8 7 8 5 8 8 4 7 1 3 0 1 2 2 3 3 4 3 3 2 2 2 2 1 3 0 1 2 2 1 4 2 2 4 5 2 1 4 1 5 4 7 6 5 3 8 7 6 8 11 12 11 11
9 6 1 4 5 5 2 3 3 2 0 1 2 4 4 3 4 3 2 2 3 3 4 2 1 3 1 1 2 3 5 1 2 3 5 3 2 3 4 5 4 7 9 8 8 9 8 9 9 13 12 11 12 12
6 5 4 4 5 4 3 4 5 1 1 2 2 4 5 4 3 2 4 2 3 2 2 2 2 1 2 2 2 1 1 3 5 5 3 4 4 2 3 5 8 7 7 8 7 6 8 9 8 9 12 12 14 12
6 6 4 4 6 6 5 4 2 0 1 2 4 4 3 2 4 2 3 5 3 2 1 2 3 2 4 2 2 5 2 3 3 3 4 5 5 2 3 6 9 2 3 2 3 4 5 7 7 7 9 12 13 14
3 2 5 3 7 6 8 1 1 3 3 3 4 4 5 5 8 5 3 3 1 1 2 1 2 4 0 1 3 2 1 3 5 4 4 5 6 4 2 4 4 3 7 6 4 5 2 3 4 5 7 9 13 15
2 3 1 7 5 5 1 1 2 3 6 5 4 3 3 4 4 5 4 3 3 3 2 2 1 1 2 2 2 3 2 3 3 4 4 7 6 1 1 1 1 4 7 6 5 3 3 3 3 6 8 11 12 11
2 4 4 8 2 2 2 2 2 4 6 3 4 4 4 4 6 9 6 3 3 1 1 0 1 3 4 3 3 3 3 3 3 4 4 6 6 6 6 6 6 8 8 6 4 4 3 3 4 4 5 6 8 9
7 7 4 5 6 1 3 3 2 4 5 4 3 3 4 4 3 3 1 3 4 2 1 2 5 4 4 2 4 5 3 3 0 4 4 5 3 4 4 3 3 3 1 3 3 2 3 3 1 2 4 6 7 7
2 2 5 4 2 2 3 2 4 4 4 4 3 3 4 1 2 3 3 4 2 4 4 4 4 5 4 5 5 4 5 5 5 5 4 4 3 2 1 2 2 2 3 2 3 2 4 2 1 2 3 4 3 1
2 5 2 2 2 2 4 4 4 3 3 4 3 3 3 2 3 3 2 2 4 5 5 4 4 4 4 6 4 4 5 2 2 2 3 2 3 2 2 2 3 3 2 2 2 4 4 4 3 2 3 4 5 4
4 2 2 3 3 3 7 1 3 4 3 4 2 2 2 2 3 1 1 3 4 3 4 4 5 4 6 7 3 1 4 4 3 4 4 3 4 3 4 4 2 1 1 3 2 2 3 4 4 4 3 3 3 3
1 1 3 3 4 4 2 4 4 4 3 2 3 2 1 3 3 1 3 2 3 3 2 2 2 2 2 2 2 2 1 2 3 3 2 1 2 3 3 2 1 1 1 2 2 3 2 3 4 4 4 3 3 3
0 3 2 4 3 3 4 4 3 2 4 4 3 2 3 2 3 3 2 3 2 2 3 3 1 2 3 1 2 3 4 2 2 1 2 2 1 2 4 3 2 0 1 3 3 2 3 2 4 4 4 3 2 2
2 5 6 4 3 4 4 3 1 2 3 2 2 2 2 2 1 1 1 2 2 1 3 2 1 3 3 1 1 2 2 3 2 3 3 1 1 2 3 2 3 4 2 0 2 3 3 4 5 6 5 5 4 2
3 4 5 4 3 3 4 4 4 3 4 2 3 3 3 2 3 2 2 3 2 2 2 1 1 4 3 1 2 3 4 3 2 1 2 1 1 2 0 2 3 4 4 4 2 2 2 3 4 4 3 4 4 4
5 3 4 2 3 3 3 3 3 2 3 2 3 1 4 2 3 3 3 2 3 2 4 2 4 2 1 1 2 3 2 1 3 2 3 2 3 2 2 0 2 4 3 4 3 3 3 2 3 4 4 3 4 5
4 3 3 5 4 4 5 3 1 4 2 2 3 1 1 2 2 2 2 1 3 4 4 4 4 3 4 4 6 6 5 3 8 10 8 4 5 5 5 3 2 3 3 4 8 5 3 3 3 3 4 3 1 2
4 3 2 3 4 2 3 3 3 1 2 3 2 3 3 3 4 2 3 2 4 5 3 3 2 4 4 5 6 9 9 7 6 4 4 3 2 5 4 4 2 3 3 4 3 3 4 3 3 2 2 2 1 2
2 3 3 3 3 4 6 5 2 3 3 2 1 1 3 4 5 3 4 2 4 4 4 5 5 2 4 5 5 6 6 6 6 7 5 3 4 5 6 8 6 6 5 5 4 4 3 3 3 2 2 1 2 2
4 5 3 3 2 1 3 5 3 2 2 2 3 1 3 5 3 4 4 1 5 4 2 5 6 2 2 4 5 5 6 3 4 4 7 5 5 6 6 6 6 6 8 9 8 8 9 8 7 9 7 8 6 6
3 4 4 3 3 3 2 2 3 2 3 2 2 1 1 2 2 3 3 2 4 5 5 4 4 5 5 7 8 6 7 6 7 10 13 12 12 10 7 6 7 8 10 9 8 9 11 14 11 12 12 11 11 10
Wind_Direction
308 310 299 296 292 293 302 305 309 311 312 308 300 313 291 303 314 324 268 244 209 261 275 259 271 245 273 196 239 313 327 339 347 40 333 292 109 250 83 148 155 150 138 169 101 104 235 170 87 159 213 188 181 204
306 307 296 287 283 280 273 283 294 299 296 306 298 294 297 292 289 313 265 296 314 232 269 300 255 248 240 225 184 304 267 281 250 51 3 290 17 30 125 158 53 116 171 171 160 205 230 200 178 209 162 166 206 172
303 304 294 289 289 288 289 296 303 306 307 290 298 289 304 272 281 268 288 279 307 266 277 282 254 258 244 224 209 198 259 247 9 181 204 296 355 84 19 246 112 32 159 99 110 304 241 278 315 261 190 201 128 99
304 309 296 297 296 294 289 295 305 308 308 297 297 293 292 267 271 276 254 243 296 284 280 281 314 278 198 167 199 216 279 334 323 358 125 240 38 73 287 279 157 193 119 122 71 333 352 304 260 299 58 80 88 106
301 307 302 297 296 295 294 300 306 306 309 300 291 297 298 290 293 275 248 228 213 241 287 292 300 280 255 219 201 190 185 242 335 327 15 245 224 22 345 319 255 194 161 139 202 199 166 216 174 140 144 126 142 138
299 299 300 295 298 299 288 295 302 301 305 300 286 288 297 295 325 291 289 91 206 192 282 298 287 289 314 149 164 179 170 206 195 267 261 274 291 88 94 274 266 243 204 155 189 145 202 131 114 110 168 160 166 148
300 300 300 297 291 286 282 297 303 307 308 287 283 289 297 310 295 234 252 271 22 266 279 291 295 270 275 155 149 141 165 161 142 288 271 292 330 352 160 251 294 279 189 178 124 118 59 225 178 182 155 163 134 116
287 292 292 291 298 293 288 291 307 313 310 299 300 290 296 297 281 272 256 237 150 261 237 276 277 311 337 149 137 159 145 144 163 184 305 297 338 276 231 244 261 271 146 147 164 5 148 124 119 125 121 148 124 127
279 275 283 283 291 290 288 307 306 310 306 307 306 306 326 202 233 235 300 132 132 176 277 247 289 279 347 344 343 62 141 130 153 159 211 142 205 248 222 223 233 80 86 162 192 93 132 143 156 160 149 139 137 156
273 267 270 274 272 293 301 296 295 301 307 321 347 237 242 213 233 177 239 110 183 206 227 252 234 272 359 344 42 79 31 303 175 222 108 147 253 261 271 250 236 232 149 154 150 120 125 137 164 178 184 185 171 169
292 282 266 255 259 274 279 281 283 280 275 55 237 239 316 316 118 208 219 208 170 232 218 230 204 226 293 252 170 22 107 312 258 224 137 212 245 240 246 244 233 243 237 188 181 195 180 177 178 185 180 180 163 165
289 280 273 242 251 270 282 280 220 201 217 276 292 286 312 282 231 261 220 177 213 241 194 217 219 197 268 122 99 272 197 172 251 217 235 239 240 216 227 233 234 211 212 228 179 200 194 195 181 188 182 178 181 178
299 275 252 234 245 280 289 186 187 275 343 328 236 245 211 219 209 225 231 231 242 247 270 331 343 205 8 74 76 94 182 235 358 257 245 234 241 346 208 265 272 215 198 200 179 153 161 166 156 179 194 193 180 177
337 4 312 240 256 264 218 184 177 154 40 257 246 284 224 219 242 204 281 258 262 263 301 265 221 256 217 113 148 179 231 153 268 246 244 269 234 249 286 262 244 222 188 202 200 173 182 174 189 195 203 191 174 183
337 339 323 265 212 203 204 182 166 98 300 270 242 243 235 250 279 283 280 286 249 254 284 282 169 14 5 241 182 332 238 250 224 242 247 277 262 238 300 300 240 217 185 189 201 199 196 185 183 190 198 192 190 180
316 307 246 246 198 184 171 139 128 162 265 248 235 267 261 310 282 263 259 243 248 247 211 254 110 220 235 177 160 220 247 237 292 284 300 311 307 357 358 329 330 66 117 164 189 190 198 162 194 198 174 182 190 183
323 252 339 185 164 167 165 141 144 204 251 242 243 228 258 268 259 259 233 250 119 121 259 69 232 215 110 243 253 211 258 279 294 310 312 305 314 336 8 293 269 21 66 73 75 57 2 292 203 133 168 187 186 191
266 310 300 149 148 132 126 211 226 233 241 238 237 228 215 232 268 266 248 194 150 216 145 236 134 358 232 242 282 246 254 278 281 295 322 315 316 0 239 304 6 33 39 34 40 24 16 0 240 232 199 186 183 187
318 335 358 170 173 181 176 211 199 264 245 243 247 227 229 250 238 244 259 209 181 200 120 40 234 222 242 232 249 255 247 229 258 280 282 291 320 344 351 13 11 12 15 360 356 339 301 263 244 243 186 160 193 187
274 273 239 221 223 182 225 221 191 253 267 243 232 231 217 217 234 242 199 159 144 168 148 242 218 218 211 227 215 252 265 227 288 321 310 314 312 336 1 9 354 321 314 356 8 351 357 335 287 261 197 174 164 174
271 194 164 149 187 267 276 261 225 231 259 251 258 211 249 254 242 226 233 150 128 197 227 223 234 252 246 217 247 248 243 192 222 207 231 281 303 338 284 288 134 114 98 32 350 344 79 113 221 243 163 160 109 65
245 155 118 193 210 246 253 232 231 274 253 250 295 218 262 272 254 228 142 152 215 219 202 204 231 241 268 272 263 228 265 210 215 225 278 286 304 289 285 222 189 200 153 173 216 249 196 179 176 131 141 146 129 119
305 156 151 149 230 221 262 179 233 240 243 258 312 267 249 259 242 118 217 222 248 235 233 230 246 248 242 274 271 158 203 203 236 241 238 220 238 262 303 302 315 323 276 288 290 259 218 150 138 125 122 101 112 129
295 211 210 205 202 261 281 248 220 250 257 256 244 272 346 295 329 176 250 252 257 295 303 282 257 300 335 46 338 265 246 216 256 282 245 225 327 312 305 303 5 59 225 266 328 309 275 178 165 160 146 142 163 155
145 264 141 251 230 235 246 252 230 239 253 229 225 195 233 207 243 215 235 279 293 294 303 302 171 170 112 80 304 280 271 225 136 51 328 164 264 323 304 295 315 1 110 28 349 324 274 247 140 135 135 127 227 238
226 209 193 223 228 212 257 278 247 270 284 282 264 277 175 225 5 301 265 254 250 254 312 323 292 73 62 209 214 301 308 355 31 65 348 275 193 244 278 1 340 323 43 303 302 25 16 24 62 64 47 68 113 106
243 246 216 224 243 288 286 253 250 256 246 251 276 211 79 50 264 238 221 258 262 227 235 294 148 125 137 188 290 288 294 283 226 137 154 162 227 221 161 30 335 290 316 342 9 73 88 82 77 80 77 67 73 79
242 252 226 217 214 214 251 275 246 275 333 308 266 122 189 224 205 242 209 229 199 147 99 81 70 102 76 292 290 324 331 17 115 77 12 47 63 32 340 188 109 13 4 351 348 348 2 74 105 115 110 85 20 18
244 247 227 252 235 234 221 226 239 229 232 282 322 236 283 271 256 306 332 73 154 100 85 97 24 19 40 32 35 31 25 84 95 84 69 38 9 337 341 336 20 47 25 54 43 50 73 84 86 99 115 135 171 10
242 190 240 257 242 253 260 195 250 293 257 242 248 318 1 347 318 350 97 134 80 80 95 104 91 80 69 69 59 38 27 33 58 96 101 60 331 294 317 11 45 131 103 82 69 74 81 78 63 57 70 91 139 148
290 215 219 235 262 218 228 282 337 334 297 255 171 98 34 355 346 27 54 82 112 95 85 71 57 63 102 77 84 77 49 6 36 46 41 52 39 30 30 40 48 52 55 52 43 52 41 38 23 316 193 188 262 275
197 218 216 231 184 198 144 184 215 182 294 29 351 33 71 86 228 283 329 62 99 106 171 135 125 132 93 101 84 70 94 115 72 55 50 48 38 26 21 28 45 58 62 61 53 49 53 51 38 31 33 27 29 23
192 182 217 244 153 161 267 91 28 28 27 30 22 72 63 100 54 297 333 47 134 150 163 183 154 136 144 113 107 91 69 70 55 67 76 71 68 56 47 32 30 37 48 50 46 51 51 52 50 46 44 41 38 34